Other Surface Observations
Issued by NWS Tucson, AZ

Home | Current Version | Previous Version | Text Only | Print | Product List | Glossary On
Versions: 1 2 3 4 5 6 7 8 9 10 11 12 13 14 15 16 17 18 19 20 21 22 23 24 25 26 27 28 29 30 31 32 33 34 35 36 37 38 39 40 41 42 43 44 45 46 47 48 49 50
805
SXUS55 KTWC 261815
OSOTWC

WEATHER ROUNDUP FOR SOUTHEAST ARIZONA
NATIONAL WEATHER SERVICE TUCSON AZ
1115 AM MST FRI MAY 26 2017

AZZ504>506-514-261915-
LOCATION       SKY/WX    TMP DP  RH WIND       PRES   REMARKS
TUCSON         SUNNY     89  23   9 W13       29.93F
DAVIS-MONTHAN  SUNNY     88  24   9 SW15G23   29.93F
CHILDRENS PARK N/A      N/A N/A  13 S8                PIMA CO DEQ
ALVERNON/22ND  N/A       84 N/A N/A S8                PIMA CO DEQ
CHERRY/GLENN   N/A      N/A N/A N/A N/A               PIMA CO DEQ
TANGERINE      N/A       83 N/A N/A S10               PIMA CO DEQ
CONTL RANCH    N/A       88  29  12 S11               PIMA CO DEQ
GRANT/1ST      N/A       83  27  13 S10               PIMA CO DEQ
CRAYCROFT/22ND N/A       84  28  13 N/A               PIMA CO DEQ
GOLFLINKS/KOLB N/A      N/A N/A N/A N/A               PIMA CO DEQ
AJO/12TH       N/A       83  31  15 S11               PIMA CO DEQ
FAIRGROUNDS    N/A       83 N/A N/A W11               PIMA CO DEQ
SAGUARO        N/A       86  27  12 W7G13             *SABINO CYN
SAN CARLOS     N/A       85  27  12 SW11G19           *SAN CARLOS
GREEN VALLEY   N/A       84  28  13 S15               PIMA CO DEQ
HORSE CAMP CYN N/A       80  27  14 SW11G20           *ARAVAIPA CYN
RINCON MTNS    NOT AVBL
$$

AZZ509>511-261915-
LOCATION       SKY/WX    TMP DP  RH WIND       PRES   REMARKS
SAFFORD        SUNNY     87  20   8 VRB3      29.92F
STRAY HORSE    N/A       63  20  19 N/A               *
TRAIL CABIN    NOT AVBL
BLACK HILLS    NOT AVBL
DRY LAKE       N/A       68  22  17 SW8G17            *NATANES MTNS
NOON CREEK     NOT AVBL
COLUMBINE      N/A       55  25  31 SW9G16            *PINALENO MTNS
GUTHRIE        N/A       70  22  16 SW12G22           *SW OF GUTHRIE
$$

AZZ502-503-513-261915-
LOCATION       SKY/WX    TMP DP  RH WIND       PRES   REMARKS
NOGALES        SUNNY     85  23  10 SW17G30   30.01F
SELLS          N/A       86  25  11 NW14G26           *
SASABE         N/A       82  30  15 SW17G25           *ALTAR VLY
HOPKINS        N/A       69  19  15 W8G24             *SANTA RITA MTNS
CARR CYN       N/A       78  34  20 W6G17             *W OF HEREFORD
$$

AZZ507-508-512-261915-
LOCATION       SKY/WX    TMP DP  RH WIND       PRES   REMARKS
SIERRA VISTA   SUNNY     82  25  12 SW22G30   30.05F
DOUGLAS        SUNNY     84  32  15 SW25G31   30.03S
EMPIRE MTNS    NOT AVBL
MULESHOE RANCH N/A       79  26  14 SW7G16            *PRESERVE
HEADQUARTERS   NOT AVBL
$$

.............................NOTES.............................
THIS IS AN AUTOMATED COLLECTIVE WITH MINIMAL QUALITY CONTROL.
PIMA CO DEQ SITES HAVE NONSTANDARD WIND SENSOR HEIGHTS.
PIMA CO DEQ SITES DO NOT REPORT WIND GUSTS.
* INDICATES WIND SENSORS LOCATED AT 20 FEET INSTEAD OF 33 FEET.
..............................KEY..............................
SKY/WX - SKY CONDITION/WEATHER
TMP    - TEMPERATURE IN FAHRENHEIT
DP     - DEWPOINT IN FAHRENHEIT
RH     - RELATIVE HUMIDITY IN PERCENT
WIND   - DIRECTION AND SPEED IN MILES PER HOUR (MPH)
VRB    - VARIABLE WIND DIRECTION
PRES   - MEAN SEA LEVEL PRESSURE IN INCHES OF MERCURY
         F - FALLING PRESSURE   R - RISING PRESSURE
         S - STEADY PRESSURE
VSB    - VISIBILITY IN MILES
HX     - HEAT INDEX IN FAHRENHEIT
WCI    - WIND CHILL INDEX IN FAHRENHEIT
N/A    - NOT AVAILABLE
AFB    - AIR FORCE BASE
         DAVIS-MONTHAN IS DAVIS-MONTHAN AIR FORCE BASE
CYN    - CANYON
MTNS   - MOUNTAINS
NCA    - NATIONAL CONSERVATION AREA
NR     - NEAR
VLY    - VALLEY
CONTL  - CONTINENTAL
PIMA CO DEQ - PIMA COUNTY DEPT OF ENVIRONMENTAL QUALITY



USA.gov is the U.S. government's official web portal to all federal, state and local government web resources and services.